SCP
0 0 1 0 0 0 0 0 0 0 0 0 0 0 1 1 0 0 0 1 0 0 0 0 0 0 0 0 0 0 1 0 0 0 0 1 0 0 0 0 0 1 1
0 0 0 0 0 0 0 0 0 0 0 0 1 1 1 1 0 1 1 1 1 0 0 0 0 0 0 0 0 0 0 0 0 0 1 0 0 0 0 0 0 1 1
0 0 0 0 0 0 0 0 0 0 1 1 1 1 1 1 1 1 2 1 1 0 0 0 0 0 0 0 0 0 0 0 0 1 1 0 0 0 0 0 0 0 1
0 0 0 1 0 0 0 0 1 1 1 1 1 1 1 1 2 2 2 2 1 0 0 0 0 0 0 0 0 0 0 0 0 1 1 0 0 1 1 0 0 0 0
0 0 1 1 1 1 0 0 1 1 1 1 1 1 1 2 2 2 2 1 1 0 0 0 0 0 0 0 0 0 1 1 0 0 0 0 1 1 1 1 0 0 0
0 0 1 1 1 1 0 0 1 1 1 1 1 1 1 1 2 1 1 1 0 0 0 0 0 0 0 0 0 0 1 0 0 0 0 0 0 1 1 0 0 0 0
0 0 1 1 1 0 0 1 1 1 1 1 1 1 2 1 1 1 0 0 0 0 0 0 0 0 0 0 0 0 0 0 0 0 0 0 0 0 0 0 0 0 0
0 0 1 1 1 1 0 1 1 1 1 1 1 1 1 2 1 1 1 0 0 0 0 0 0 0 0 0 0 0 0 0 0 0 0 0 1 1 0 0 0 0 0
0 0 1 1 1 1 1 1 1 1 1 1 1 1 1 1 1 1 1 0 0 0 0 0 0 0 0 0 0 0 0 0 0 0 0 1 1 1 0 0 0 0 0
1 0 1 1 1 1 1 1 1 1 0 0 0 1 1 1 1 1 1 0 0 0 0 0 0 0 0 0 0 0 0 0 0 0 1 1 1 1 0 0 0 0 0
1 1 1 1 1 1 1 1 1 1 0 0 0 0 0 0 0 0 0 0 0 0 0 0 0 0 0 0 0 0 0 0 0 1 1 1 1 1 0 0 0 0 0
1 1 1 1 1 1 1 1 1 1 0 0 0 0 0 0 0 0 0 0 0 0 0 0 0 0 0 0 0 0 0 0 1 1 1 1 1 0 0 0 0 0 0
1 1 1 1 1 1 1 1 1 1 1 0 0 0 0 0 0 0 0 0 0 0 0 0 0 0 0 0 0 0 0 0 1 1 1 1 1 0 0 0 0 0 0
1 1 1 1 1 1 1 1 1 1 1 0 0 0 0 0 0 0 0 0 0 0 0 0 0 0 0 0 0 0 0 0 1 1 1 1 1 0 0 0 0 0 0
1 1 1 1 1 1 1 1 1 1 1 0 0 0 0 0 0 0 0 0 0 0 0 0 0 0 0 0 0 0 0 0 0 1 1 1 1 0 0 0 0 0 0
1 1 1 2 2 1 1 1 1 1 1 0 0 0 0 0 0 0 0 0 0 0 0 0 0 0 0 0 0 0 0 0 0 0 1 1 0 0 0 0 0 0 0
1 1 1 2 2 2 1 1 1 1 1 1 0 0 0 0 0 0 0 0 0 0 0 0 0 0 0 0 0 0 0 0 0 0 0 0 0 0 0 1 1 1 1
1 1 1 2 2 2 1 1 1 1 1 1 1 1 1 1 1 0 0 0 0 0 0 0 0 0 0 0 0 0 0 0 0 0 0 0 0 0 1 1 1 1 1
1 1 1 2 2 2 1 1 1 1 1 1 1 1 1 1 1 1 0 0 0 0 0 0 0 0 0 0 0 0 0 0 0 0 0 0 0 1 1 1 1 1 1
2 2 2 2 2 2 1 1 1 1 1 1 1 1 1 1 1 1 1 1 0 0 0 0 0 0 0 0 0 0 0 0 1 1 1 0 1 1 1 1 1 1 1
2 2 2 2 2 2 2 1 1 1 1 1 1 1 1 1 1 1 1 1 1 1 1 0 0 0 0 0 0 0 0 1 1 1 1 1 1 1 1 1 1 1 1
2 2 2 2 3 2 2 2 1 1 1 1 1 1 1 1 1 1 1 1 1 1 1 1 1 1 1 1 1 1 1 1 1 1 1 1 1 1 1 1 1 1 1
2 2 2 2 3 3 2 2 1 1 1 1 1 1 1 1 1 1 1 1 1 1 1 1 1 1 1 1 1 1 1 1 1 1 1 1 1 1 1 1 1 1 1
2 2 2 3 3 3 3 3 2 2 1 1 1 1 1 1 1 1 1 1 1 1 1 1 1 1 1 1 1 1 1 1 1 1 1 1 1 1 1 1 1 1 1
2 2 2 3 3 3 4 5 5 3 3 3 3 2 1 1 1 1 1 1 1 1 1 1 1 1 1 1 1 1 1 1 1 1 1 1 1 1 1 1 1 1 2
2 2 2 3 3 4 5 6 6 5 4 5 4 3 2 1 1 1 1 1 1 1 1 1 1 1 1 1 1 1 1 1 1 1 1 1 1 1 1 1 1 2 2
Wind_Speed
6 9 10 8 10 10 11 11 10 11 10 10 10 10 10 10 10 11 11 12 12 13 12 12 13 13 13 13 14 13 14 13 13 14 14 14 14 14 13 13 12 13 15
8 10 10 9 10 10 10 10 10 10 10 10 10 10 10 9 10 11 12 12 12 12 12 12 12 13 13 13 13 12 12 12 13 13 13 13 13 13 12 10 8 12 14
9 10 11 9 10 10 10 10 10 10 9 10 10 9 10 10 11 12 12 12 12 12 12 12 12 12 12 12 12 12 12 11 11 11 11 10 12 12 12 12 13 14 14
9 10 10 10 9 9 9 9 10 10 9 9 10 10 10 10 11 12 12 12 12 12 13 12 12 12 11 11 11 11 11 10 9 9 7 9 10 12 12 13 13 13 13
9 10 12 8 9 9 9 9 9 9 9 9 9 9 10 10 11 11 12 12 12 12 12 12 12 11 11 11 10 10 10 9 7 5 7 8 9 12 12 13 13 12 12
9 9 13 8 9 8 9 9 9 9 9 9 9 9 10 11 11 11 11 11 11 11 11 11 11 11 10 10 10 9 9 8 7 7 7 7 9 11 11 12 12 12 12
9 9 12 8 8 8 9 9 9 9 9 9 9 10 10 11 11 11 11 11 11 11 10 10 10 10 10 9 8 8 7 5 4 6 6 7 9 11 11 11 12 11 11
8 9 11 10 8 8 8 8 9 9 9 9 9 9 10 10 10 10 10 10 10 10 10 9 9 9 9 9 8 8 6 4 5 6 6 7 11 10 10 11 11 11 10
6 7 7 10 10 9 8 7 8 9 9 9 8 9 9 10 10 10 9 9 9 9 9 9 9 9 8 8 8 6 4 2 3 5 6 6 10 9 10 10 10 10 10
5 6 6 6 6 7 9 9 8 8 8 8 8 8 8 9 10 10 9 8 9 9 9 8 8 8 8 8 7 6 5 5 4 5 4 8 10 9 10 10 10 9 9
5 4 4 6 6 5 6 8 8 8 7 7 8 7 5 6 8 7 10 8 8 9 8 7 7 7 7 8 7 6 6 3 4 3 4 10 10 9 9 9 9 9 8
6 5 3 4 4 4 4 5 4 4 5 4 4 5 4 5 4 6 10 8 8 8 8 7 6 7 6 6 7 7 3 3 3 4 6 10 9 9 9 9 8 8 8
5 5 5 4 3 3 3 3 2 2 3 4 5 4 4 3 4 5 5 6 6 7 6 7 6 3 2 2 2 2 2 2 2 3 7 10 9 8 9 9 9 9 9
5 5 4 4 3 2 1 2 2 2 2 3 4 3 3 2 2 3 2 3 3 3 3 3 2 3 2 2 2 2 2 1 2 2 7 10 8 8 9 9 9 10 9
5 4 4 4 3 3 2 1 2 2 2 3 2 2 2 2 2 2 2 1 2 3 3 3 2 3 3 3 2 2 2 1 1 2 5 10 9 8 9 9 10 10 10
4 4 4 4 4 4 3 2 1 2 2 1 2 2 1 1 2 2 2 1 1 2 1 1 2 2 2 2 2 2 2 2 2 2 3 8 10 9 8 9 9 10 10
4 4 4 5 4 4 4 3 2 2 2 1 1 2 2 2 2 1 2 2 1 1 2 2 2 2 2 3 2 2 2 2 2 3 3 3 6 10 9 8 9 10 10
4 4 4 4 4 5 3 2 1 1 1 1 2 2 2 2 2 2 2 2 2 2 2 2 2 2 1 2 2 2 2 2 3 4 4 4 3 4 9 11 10 10 11
4 5 5 4 4 4 3 3 2 2 2 2 2 2 2 3 3 3 2 1 3 3 2 3 2 2 2 2 2 3 3 3 3 5 4 4 4 4 4 8 11 10 11
4 4 4 5 4 3 3 3 2 2 2 2 2 2 3 3 4 3 3 2 3 2 2 2 1 2 2 2 3 2 2 3 4 3 5 4 4 6 6 5 7 8 10
5 5 4 4 4 3 3 3 2 2 2 2 2 2 3 3 3 4 3 3 3 3 3 3 3 3 3 2 3 3 3 4 4 3 4 4 4 4 4 4 5 4 5
6 5 5 5 4 4 3 2 1 1 2 1 2 2 3 3 3 4 3 3 3 3 4 4 4 4 3 3 3 3 4 4 4 4 3 4 4 3 4 4 3 3 4
6 6 4 4 4 4 3 2 2 2 2 2 2 2 3 3 4 4 4 4 4 4 3 4 4 5 4 3 3 3 3 2 2 3 3 3 2 2 2 2 3 3 3
7 6 5 4 4 4 3 3 2 2 1 1 1 1 2 3 4 4 4 5 5 4 4 5 5 4 5 4 4 4 5 3 3 2 3 3 3 2 2 2 2 2 3
7 6 6 5 4 4 3 3 3 2 1 1 1 1 2 2 4 4 4 4 4 5 4 5 3 4 4 5 4 4 4 4 5 4 3 2 2 2 2 2 2 2 2
7 6 6 6 5 4 4 3 3 2 2 2 2 2 2 2 2 4 4 4 4 4 4 4 4 5 4 5 5 4 4 4 4 4 4 4 3 2 2 2 2 2 2
Wind_Direction
100 90 87 86 88 88 89 90 92 92 93 96 97 98 100 104 107 111 113 115 116 115 114 114 115 114 114 112 111 111 113 116 116 116 116 116 115 117 120 124 129 114 116
103 98 95 88 87 87 89 90 90 91 92 92 94 97 99 103 109 112 116 115 117 118 116 114 114 116 116 114 113 115 116 118 120 121 123 120 117 118 118 115 101 111 122
108 107 111 93 92 91 90 91 93 93 93 93 94 96 96 99 109 114 115 115 115 120 121 117 116 116 116 115 114 117 119 121 123 130 141 128 121 120 119 114 109 119 122
108 108 99 99 96 96 94 94 95 95 93 91 93 94 95 98 106 112 115 115 115 115 117 119 118 118 118 117 116 117 119 122 131 159 145 126 124 121 124 123 124 125 125
104 103 101 106 103 101 97 95 95 95 95 92 93 95 96 98 103 108 111 113 114 116 118 120 120 120 120 119 117 116 118 125 147 168 115 116 115 123 128 128 130 130 128
114 113 105 111 107 103 100 97 95 95 95 92 93 94 95 99 103 105 107 110 113 114 117 121 123 122 121 119 119 118 123 141 175 126 121 125 121 127 130 130 132 131 130
111 105 108 108 108 105 102 101 100 97 95 94 94 95 95 97 100 102 106 108 111 112 113 117 119 121 121 120 119 119 127 159 143 120 127 125 115 129 133 132 134 135 133
109 111 114 118 108 106 105 105 102 97 93 91 93 97 98 99 99 101 103 106 111 115 117 118 121 122 123 124 121 123 137 192 137 124 125 117 115 132 135 136 136 138 138
113 116 119 132 131 125 110 103 102 99 97 96 95 97 100 100 101 101 104 108 115 118 121 122 124 126 123 124 125 130 146 222 160 125 128 118 125 137 141 140 142 142 142
113 111 123 117 114 128 126 117 111 106 103 102 98 100 106 114 112 114 117 112 119 120 121 125 125 126 128 130 134 142 171 214 158 136 130 122 136 146 149 150 149 146 147
126 116 112 114 120 116 116 126 134 128 122 133 121 123 148 125 118 126 99 113 118 119 118 121 128 133 146 147 148 166 198 189 137 131 122 123 147 154 155 157 156 154 159
133 128 120 117 123 116 112 121 131 130 125 123 110 123 118 107 109 109 113 114 120 124 128 126 144 166 191 155 157 192 189 154 153 148 123 136 156 162 164 165 166 169 171
138 136 137 129 120 116 121 121 113 110 119 123 112 114 110 121 127 125 130 137 138 150 145 146 174 165 146 128 167 165 147 162 152 143 130 146 162 172 173 175 177 178 184
146 147 145 141 139 128 108 120 148 133 133 124 126 145 127 119 119 109 119 130 146 138 136 145 144 138 146 157 167 165 172 187 145 131 129 150 168 178 182 184 185 190 193
160 160 157 163 154 159 162 212 146 135 129 126 133 133 147 144 125 122 124 139 159 139 157 167 158 153 171 173 180 172 173 142 149 151 134 156 174 184 189 193 195 197 197
172 172 169 181 178 184 184 187 171 158 165 170 157 141 191 154 138 156 155 171 160 161 152 174 151 173 188 174 188 187 203 179 163 179 167 162 176 185 194 201 202 202 202
176 178 184 192 187 193 193 190 180 181 161 181 166 176 202 185 166 201 181 193 172 169 171 199 175 190 197 192 193 200 209 211 192 194 198 191 177 182 194 203 207 208 208
175 175 190 199 175 178 184 202 193 188 163 195 200 195 205 203 205 224 218 202 192 210 204 188 210 195 196 224 211 216 209 199 203 207 211 202 205 192 187 198 207 211 213
176 179 185 191 187 188 187 207 211 200 223 222 216 220 210 225 218 221 228 211 215 212 219 222 175 215 204 223 222 207 216 219 208 211 215 214 209 216 206 181 196 208 216
170 179 181 182 184 192 190 202 226 223 217 220 216 203 221 228 224 233 218 208 238 219 220 237 231 236 247 241 253 229 230 222 224 216 221 215 209 214 216 209 199 199 209
165 172 177 181 169 185 190 208 206 213 224 221 223 205 217 230 223 233 247 200 237 232 235 228 235 226 231 227 239 230 220 221 218 219 231 237 223 221 220 216 228 223 196
166 171 173 175 171 188 178 202 229 273 259 243 252 219 234 237 240 227 239 237 228 238 233 240 237 251 241 218 242 248 228 204 201 211 213 221 228 220 215 212 216 223 243
169 175 175 170 169 183 181 192 186 204 238 229 233 227 244 250 243 253 238 245 239 240 233 236 236 240 251 239 234 253 262 242 184 183 201 212 216 228 234 219 217 223 234
171 170 169 167 170 176 190 205 217 234 259 287 269 245 247 250 249 243 241 239 241 244 238 242 234 246 248 253 240 243 264 294 267 214 196 186 193 215 240 250 245 224 234
168 168 164 165 167 174 195 197 221 241 252 263 258 246 251 234 244 247 243 243 240 244 242 246 250 249 249 255 257 251 246 241 247 254 240 213 202 213 220 242 252 255 243
166 166 165 166 174 179 190 199 222 246 260 269 278 285 262 236 239 240 239 241 242 246 242 242 246 242 252 259 259 255 251 247 239 241 246 236 228 219 209 237 245 245 240